Weather History for Laredo, TX

Change the Weather History Date:

Monday, February 18, 2013

  Actual Average Record
Temperature  
Mean Temperature 75 °F 62 °F  
Max Temperature 87 °F 73 °F 100 °F (1986)
Min Temperature 62 °F 51 °F 28 °F (1978)
Degree Days  
Heating Degree Days 0 5  
Month to date heating degree days 27 119  
Since 1 July heating degree days 458 798  
Cooling Degree Days 10 2  
Month to date cooling degree days 60 32  
Year to date cooling degree days 138 60  
Growing Degree Days 24 (Base 50)    
Moisture  
Dew Point 53 °F    
Average Humidity 58    
Maximum Humidity 90    
Minimum Humidity 24    
Precipitation  
Precipitation T in 0.03 in 1.10 in (1924)
Month to date precipitation 0.29 0.60  
Year to date precipitation 0.73 1.50  
Sea Level Pressure  
Sea Level Pressure 29.91 in    
Wind  
Wind Speed 11 mph (SSE)    
Max Wind Speed 22 mph    
Max Gust Speed 28 mph    
Visibility 10 miles    
Events Rain    
T = Trace of Precipitation, MM = Missing Value Source: NWS Daily Summary

Daily Weather History Graph

Daily Weather History Graph

Search for Another Location

Airport:

Trip Planner

Search our weather history database for the weather conditions in past years. The results will help you decide how hot, cold, wet, or windy it might be!

Date:

Astronomy

Feb. 18, 2013 Rise Set
Actual Time 7:12 AM CST 6:31 PM CST
Civil Twilight 6:48 AM CST 6:55 PM CST
Nautical Twilight 6:21 AM CST 7:22 PM CST
Astronomical Twilight 5:53 AM CST 7:49 PM CST
Moon 12:33 PM CST (2/18) 1:39 AM CST (2/18)
Length of Visible Light 12h 07m
Length of Day
11h 19m
First Quarter, 58% of the Moon is Illuminated
Feb 18
First Quarter
Feb 25
Full
Mar 4
Last Quarter
Mar 11
New
Mar 19
First Quarter

Hourly Weather History & Observations

Time (CST) Temp. Dew Point Humidity Pressure Visibility Wind Dir Wind Speed Gust Speed Precip Events Conditions
12:56 AM 63.9 °F 55.9 °F 75% 29.93 in 10.0 mi SSE 20.7 mph - N/A   Clear
1:56 AM 63.0 °F 56.8 °F 80% 29.92 in 10.0 mi SSE 16.1 mph - N/A   Clear
2:56 AM 63.0 °F 56.8 °F 80% 29.89 in 10.0 mi SSE 15.0 mph - N/A   Clear
3:56 AM 63.0 °F 57.9 °F 84% 29.88 in 10.0 mi South 12.7 mph - N/A   Clear
5:40 AM 62.6 °F 59.0 °F 88% 29.89 in 10.0 mi South 9.2 mph - N/A   Mostly Cloudy
5:56 AM 63.0 °F 59.0 °F 87% 29.87 in 10.0 mi South 11.5 mph - N/A   Overcast
6:06 AM 62.6 °F 59.0 °F 88% 29.90 in 10.0 mi South 10.4 mph - N/A   Overcast
6:56 AM 63.9 °F 59.0 °F 84% 29.88 in 10.0 mi South 16.1 mph - N/A   Overcast
7:56 AM 64.9 °F 59.0 °F 81% 29.88 in 10.0 mi South 15.0 mph - N/A   Overcast
8:36 AM 66.2 °F 59.0 °F 78% 29.92 in 10.0 mi South 20.7 mph 24.2 mph N/A   Overcast
8:56 AM 66.9 °F 59.0 °F 76% 29.89 in 10.0 mi South 17.3 mph - N/A   Mostly Cloudy
9:12 AM 68.0 °F 59.0 °F 73% 29.93 in 10.0 mi South 17.3 mph - N/A   Scattered Clouds
9:56 AM 70.9 °F 57.9 °F 63% 29.91 in 10.0 mi SSW 17.3 mph - N/A   Partly Cloudy
10:56 AM 72.9 °F 56.8 °F 57% 29.93 in 10.0 mi South 9.2 mph - N/A   Clear
11:56 AM 77.0 °F 56.8 °F 50% 29.93 in 10.0 mi SW 4.6 mph - N/A   Clear
12:56 PM 79.9 °F 55.9 °F 44% 29.91 in 10.0 mi West 5.8 mph - N/A   Clear
1:56 PM 82.9 °F 52.0 °F 34% 29.87 in 10.0 mi West 4.6 mph - 0.00 in Rain Rain
2:56 PM 86.9 °F 46.9 °F 25% 29.86 in 10.0 mi NNW 8.1 mph - N/A   Clear
3:56 PM 86.0 °F 45.9 °F 25% 29.85 in 10.0 mi NNE 8.1 mph - N/A   Clear
4:56 PM 84.2 °F 44.6 °F 25% 29.88 in 10.0 mi North 8.1 mph - N/A   Clear
5:56 PM 82.9 °F 43.0 °F 24% 29.86 in 10.0 mi NNE 10.4 mph - N/A   Clear
6:56 PM 77.9 °F 45.0 °F 31% 29.89 in 10.0 mi NNE 10.4 mph - N/A   Clear
7:56 PM 74.8 °F 45.0 °F 34% 29.93 in 10.0 mi NE 9.2 mph - N/A   Clear
8:56 PM 72.9 °F 45.0 °F 37% 29.95 in 10.0 mi NE 8.1 mph - N/A   Clear
9:56 PM 68.0 °F 43.9 °F 42% 29.98 in 10.0 mi SE 4.6 mph - N/A   Clear
10:56 PM 68.0 °F 43.9 °F 42% 29.99 in 10.0 mi East 6.9 mph - N/A   Clear
11:56 PM 65.8 °F 45.0 °F 47% 29.99 in 10.0 mi SE 6.9 mph - N/A   Clear